• In Netherlands
  • List of Countries
  • For 7 days
  • Water Temperature
  • Satellite Maps
  • Weather Map
  • Weather Widgets
  • user-avatar
    Login

    Hourly Weather Santiago del Estero

    Today, 23 March, Thursday

    Time Temperature Precipitation Wind Pressure Humidity
    00:00 +18°C° 0 mm 0 mps 745 mmHg 96%
    01:00 +18°C° 0 mm 0 mps 745 mmHg 97%
    02:00 +18°C° 0 mm 0 mps 744 mmHg 97%
    03:00 +18°C° 0 mm 0 mps 744 mmHg 98%
    04:00 +18°C° 0 mm 0 mps 744 mmHg 98%
    05:00 +18°C° 0 mm 0 mps 744 mmHg 98%
    06:00 +21°C° 0 mm 1 mps 744 mmHg 94%
    07:00 +23°C° 0 mm 1 mps 745 mmHg 91%
    08:00 +24°C° 0 mm 1 mps 745 mmHg 86%
    09:00 +26°C° 0.1 mm 1 mps 745 mmHg 78%
    10:00 +27°C° 0.1 mm 1 mps 744 mmHg 70%
    11:00 +29°C° 0.1 mm 1 mps 744 mmHg 62%
    12:00 +30°C° 0 mm 1 mps 744 mmHg 56%
    13:00 +32°C° 0 mm 1 mps 743 mmHg 50%
    14:00 +33°C° 0 mm 1 mps 742 mmHg 43%
    15:00 +34°C° 0 mm 2 mps 742 mmHg 43%
    16:00 +34°C° 0 mm 2 mps 741 mmHg 42%
    17:00 +34°C° 0 mm 2 mps 741 mmHg 41%
    18:00 +31°C° 0 mm 2 mps 741 mmHg 48%
    19:00 +29°C° 0 mm 2 mps 741 mmHg 55%
    20:00 +27°C° 0 mm 2 mps 741 mmHg 62%
    21:00 +26°C° 0 mm 2 mps 742 mmHg 67%
    22:00 +25°C° 0 mm 2 mps 742 mmHg 71%
    23:00 +25°C° 0 mm 2 mps 743 mmHg 75%

    Tomorrow, 24 March, Friday

    Time Temperature Precipitation Wind Pressure Humidity
    00:00 +24°C° 0 mm 2 mps 742 mmHg 78%
    01:00 +24°C° 0 mm 1 mps 742 mmHg 81%
    02:00 +23°C° 0 mm 1 mps 742 mmHg 84%
    03:00 +23°C° 0 mm 1 mps 742 mmHg 85%
    04:00 +23°C° 0 mm 1 mps 742 mmHg 86%
    05:00 +23°C° 0 mm 1 mps 742 mmHg 87%
    06:00 +24°C° 0 mm 2 mps 742 mmHg 82%
    07:00 +25°C° 0 mm 2 mps 743 mmHg 76%
    08:00 +27°C° 0 mm 2 mps 743 mmHg 71%
    09:00 +29°C° 0.1 mm 3 mps 743 mmHg 63%
    10:00 +31°C° 0.1 mm 3 mps 743 mmHg 56%
    11:00 +34°C° 0.1 mm 4 mps 743 mmHg 49%
    12:00 +35°C° 0 mm 4 mps 742 mmHg 46%
    13:00 +35°C° 0 mm 4 mps 741 mmHg 43%
    14:00 +36°C° 0 mm 4 mps 740 mmHg 40%
    15:00 +36°C° 0 mm 4 mps 740 mmHg 41%
    16:00 +35°C° 0 mm 4 mps 739 mmHg 41%
    17:00 +35°C° 0 mm 3 mps 739 mmHg 42%
    18:00 +34°C° 0 mm 3 mps 739 mmHg 47%
    19:00 +31°C° 0 mm 3 mps 740 mmHg 52%
    20:00 +29°C° 0 mm 2 mps 740 mmHg 57%
    21:00 +29°C° 0.1 mm 2 mps 740 mmHg 60%
    22:00 +29°C° 0.1 mm 2 mps 741 mmHg 62%
    23:00 +28°C° 0.1 mm 2 mps 741 mmHg 65%

    Day after tomorrow, 25 March, Saturday

    Time Temperature Precipitation Wind Pressure Humidity
    00:00 +28°C° 0.1 mm 2 mps 740 mmHg 68%
    01:00 +27°C° 0.1 mm 2 mps 740 mmHg 70%
    02:00 +26°C° 0.1 mm 2 mps 740 mmHg 73%
    03:00 +26°C° 0.4 mm 2 mps 740 mmHg 77%
    04:00 +25°C° 0.4 mm 2 mps 740 mmHg 80%
    05:00 +25°C° 0.4 mm 2 mps 740 mmHg 84%
    06:00 +25°C° 0.4 mm 2 mps 740 mmHg 82%
    07:00 +25°C° 0.4 mm 3 mps 740 mmHg 81%
    08:00 +26°C° 0.4 mm 3 mps 741 mmHg 79%
    09:00 +28°C° 0.2 mm 4 mps 741 mmHg 70%
    10:00 +30°C° 0.2 mm 4 mps 741 mmHg 61%
    11:00 +33°C° 0.2 mm 5 mps 741 mmHg 52%
    12:00 +35°C° 0.1 mm 5 mps 740 mmHg 48%
    13:00 +36°C° 0.1 mm 5 mps 739 mmHg 44%
    14:00 +37°C° 0.1 mm 4 mps 738 mmHg 40%
    15:00 +36°C° 0.1 mm 5 mps 738 mmHg 42%
    16:00 +36°C° 0.1 mm 5 mps 737 mmHg 43%
    17:00 +35°C° 0.1 mm 5 mps 737 mmHg 45%
    18:00 +33°C° 0.1 mm 4 mps 737 mmHg 54%
    19:00 +30°C° 0.1 mm 4 mps 738 mmHg 64%
    20:00 +28°C° 0.1 mm 4 mps 738 mmHg 73%
    21:00 +27°C° 0.1 mm 3 mps 738 mmHg 78%
    22:00 +27°C° 0.1 mm 3 mps 739 mmHg 82%
    23:00 +26°C° 0.1 mm 3 mps 739 mmHg 87%

    26 March, Sunday

    Time Temperature Precipitation Wind Pressure Humidity
    00:00 +26°C° 0.3 mm 2 mps 738 mmHg 89%
    01:00 +25°C° 0.3 mm 2 mps 738 mmHg 91%
    02:00 +25°C° 0.3 mm 2 mps 738 mmHg 93%
    03:00 +25°C° 0.5 mm 2 mps 737 mmHg 94%
    04:00 +24°C° 0.5 mm 2 mps 737 mmHg 95%
    05:00 +24°C° 0.5 mm 2 mps 737 mmHg 96%
    06:00 +25°C° 0 mm 3 mps 738 mmHg 93%
    07:00 +25°C° 0 mm 3 mps 739 mmHg 90%
    08:00 +26°C° 0 mm 3 mps 739 mmHg 87%
    09:00 +27°C° 0 mm 3 mps 739 mmHg 81%
    10:00 +29°C° 0 mm 3 mps 739 mmHg 74%
    11:00 +30°C° 0 mm 3 mps 739 mmHg 67%
    12:00 +33°C° 0.2 mm 3 mps 738 mmHg 61%
    13:00 +34°C° 0.2 mm 3 mps 738 mmHg 56%
    14:00 +35°C° 0.2 mm 3 mps 737 mmHg 50%
    15:00 +35°C° 0.5 mm 3 mps 737 mmHg 53%
    16:00 +34°C° 0.5 mm 4 mps 736 mmHg 56%
    17:00 +33°C° 0.5 mm 4 mps 736 mmHg 60%
    18:00 +31°C° 0.3 mm 3 mps 737 mmHg 67%
    19:00 +29°C° 0.3 mm 3 mps 737 mmHg 74%
    20:00 +28°C° 0.3 mm 2 mps 738 mmHg 81%
    21:00 +27°C° 0.4 mm 2 mps 738 mmHg 84%
    22:00 +27°C° 0.4 mm 2 mps 739 mmHg 87%
    23:00 +26°C° 0.4 mm 2 mps 739 mmHg 90%

    27 March, Monday

    Time Temperature Precipitation Wind Pressure Humidity
    00:00 +26°C° 0 mm 2 mps 739 mmHg 91%
    01:00 +26°C° 0 mm 2 mps 739 mmHg 92%
    02:00 +25°C° 0 mm 2 mps 739 mmHg 93%
    03:00 +25°C° 0 mm 2 mps 739 mmHg 94%
    04:00 +25°C° 0 mm 1 mps 739 mmHg 95%
    05:00 +25°C° 0 mm 1 mps 739 mmHg 96%
    06:00 +25°C° 0.3 mm 1 mps 739 mmHg 93%
    07:00 +26°C° 0.3 mm 2 mps 740 mmHg 91%
    08:00 +27°C° 0.3 mm 2 mps 740 mmHg 88%
    09:00 +29°C° 0.1 mm 2 mps 740 mmHg 78%
    10:00 +31°C° 0.1 mm 1 mps 740 mmHg 69%
    11:00 +33°C° 0.1 mm 1 mps 740 mmHg 59%
    12:00 +34°C° 0.8 mm 2 mps 740 mmHg 58%
    13:00 +34°C° 0.8 mm 3 mps 739 mmHg 56%
    14:00 +35°C° 0.8 mm 4 mps 738 mmHg 55%
    15:00 +34°C° 0.7 mm 4 mps 738 mmHg 59%
    16:00 +33°C° 0.7 mm 5 mps 738 mmHg 62%
    17:00 +32°C° 0.7 mm 5 mps 738 mmHg 66%
    18:00 +30°C° 0.7 mm 4 mps 739 mmHg 73%
    19:00 +28°C° 0.7 mm 3 mps 739 mmHg 80%
    20:00 +27°C° 0.7 mm 2 mps 740 mmHg 86%
    21:00 +27°C° 1.9 mm 2 mps 740 mmHg 88%
    22:00 +26°C° 1.9 mm 2 mps 741 mmHg 89%
    23:00 +26°C° 1.9 mm 2 mps 741 mmHg 91%

    28 March, Tuesday

    Time Temperature Precipitation Wind Pressure Humidity
    00:00 +26°C° 0.7 mm 2 mps 741 mmHg 92%
    01:00 +25°C° 0.7 mm 2 mps 741 mmHg 93%
    02:00 +25°C° 0.7 mm 2 mps 740 mmHg 94%
    03:00 +25°C° 0.5 mm 1 mps 741 mmHg 94%
    04:00 +25°C° 0.5 mm 1 mps 741 mmHg 94%
    05:00 +25°C° 0.5 mm 1 mps 741 mmHg 95%
    06:00 +25°C° 0.7 mm 2 mps 741 mmHg 93%
    07:00 +26°C° 0.7 mm 2 mps 742 mmHg 92%
    08:00 +26°C° 0.7 mm 3 mps 742 mmHg 90%
    09:00 +28°C° 1.2 mm 3 mps 742 mmHg 83%
    10:00 +29°C° 1.2 mm 3 mps 742 mmHg 76%
    11:00 +31°C° 1.2 mm 3 mps 742 mmHg 69%
    12:00 +33°C° 1.6 mm 4 mps 741 mmHg 66%
    13:00 +33°C° 1.6 mm 4 mps 740 mmHg 62%
    14:00 +34°C° 1.6 mm 5 mps 740 mmHg 59%
    15:00 +34°C° 1.3 mm 4 mps 740 mmHg 63%
    16:00 +33°C° 1.3 mm 4 mps 739 mmHg 66%
    17:00 +32°C° 1.3 mm 4 mps 739 mmHg 70%
    18:00 +30°C° 0.6 mm 4 mps 739 mmHg 74%
    19:00 +29°C° 0.6 mm 3 mps 740 mmHg 79%
    20:00 +28°C° 0.6 mm 3 mps 740 mmHg 83%
    21:00 +27°C° 3.2 mm 3 mps 740 mmHg 85%
    22:00 +27°C° 3.2 mm 3 mps 740 mmHg 87%
    23:00 +26°C° 3.2 mm 4 mps 740 mmHg 89%
    Show more